Gilze-Rijen, Netherlands

4:28 AM CEST on October 17, 2017 (GMT +0200)
Gilze-Rijen Air Base

Weather History for EHGR - September, 2013

Change the Weather History Date:

Thursday, September 26, 2013

  Actual Average Record
Temperature  
Mean Temperature 55 °F -  
Max Temperature 64 °F 58 °F 75 °F (2011)
Min Temperature 46 °F 45 °F 37 °F (2015)
Degree Days  
Heating Degree Days 10    
Growing Degree Days 5 (Base 50)    
Moisture  
Dew Point 51 °F    
Average Humidity 82    
Maximum Humidity 100    
Minimum Humidity 55    
Precipitation  
Precipitation 0.00 in - - ()
Sea Level Pressure  
Sea Level Pressure 29.96 in    
Wind  
Wind Speed 5 mph ()    
Max Wind Speed 13 mph    
Max Gust Speed -    
Visibility 4.4 miles    
Events Fog    
Averages and records for this station are not official NWS values.
T = Trace of Precipitation, MM = Missing Value Source: Averaged Metar Reports

Daily Weather History Graph

Daily Weather History Graph

Search for Another Location

Airport or City:

Trip Planner

Search our weather history database for the weather conditions in past years. The results will help you decide how hot, cold, wet, or windy it might be!

Date:

Astronomy

Sep. 26, 2013 Rise Set
Actual Time 7:32 AM CEST 7:29 PM CEST
Civil Twilight 6:59 AM CEST 8:02 PM CEST
Nautical Twilight 6:20 AM CEST 8:41 PM CEST
Astronomical Twilight 5:39 AM CEST 9:21 PM CEST
Moon 11:37 PM CEST (9/26) 2:49 PM CEST (9/26)
Length of Visible Light 13h 02m
Length of Day
11h 56m
Waning Gibbous, 57% of the Moon is Illuminated
Sep 26
Waning Gibbous
Sep 27
Last Quarter
Oct 5
New
Oct 12
First Quarter
Oct 19
Full

Hourly Weather History & Observations

Time (CEST) Temp. Windchill Dew Point Humidity Pressure Visibility Wind Dir Wind Speed Gust Speed Precip Events Conditions
12:25 AM 57.2 °F - 57.2 °F 100% 29.86 in 1.2 mi WNW 3.5 mph - N/A   Mostly Cloudy
12:55 AM 55.4 °F - 55.4 °F 100% 29.86 in 1.4 mi NNW 3.5 mph - N/A   Scattered Clouds
1:25 AM 55.4 °F - 55.4 °F 100% 29.86 in 1.5 mi NW 4.6 mph - N/A   Mostly Cloudy
1:55 AM 55.4 °F - 53.6 °F 94% 29.86 in - NW 3.5 mph - N/A   Scattered Clouds
2:25 AM 57.2 °F - 55.4 °F 94% 29.86 in 1.4 mi West 2.3 mph - N/A   Overcast
2:55 AM 55.4 °F - 53.6 °F 94% 29.86 in 1.5 mi WNW 3.5 mph - N/A   Mostly Cloudy
3:25 AM 55.4 °F - 53.6 °F 94% 29.86 in 1.6 mi West 2.3 mph - N/A   Mostly Cloudy
3:55 AM 55.4 °F - 53.6 °F 94% 29.86 in 1.4 mi West 1.2 mph - N/A   Overcast
3:59 AM 53.6 °F - 53.6 °F 100% 29.86 in 0.7 mi WSW 1.2 mph - N/A   Overcast
4:00 AM 53.6 °F - 53.6 °F 100% 29.86 in 0.3 mi WSW 1.2 mph - N/A Fog Fog
4:07 AM 53.6 °F - 53.6 °F 100% 29.86 in 0.6 mi WSW 2.3 mph - N/A   Overcast
4:11 AM 53.6 °F - 51.8 °F 94% 29.86 in 1.5 mi West 2.3 mph - N/A   Overcast
4:16 AM 51.8 °F - 51.8 °F 100% 29.86 in 0.7 mi West 2.3 mph - N/A   Mostly Cloudy
4:25 AM 53.6 °F - 53.6 °F 100% 29.86 in 0.4 mi West 2.3 mph - N/A Fog Fog
4:31 AM 53.6 °F - 51.8 °F 94% 29.86 in 0.6 mi West 3.5 mph - N/A   Scattered Clouds
4:36 AM 53.6 °F - 53.6 °F 100% 29.86 in - West 3.5 mph - N/A Fog Fog
4:51 AM 53.6 °F - 51.8 °F 94% 29.86 in 0.5 mi West 2.3 mph - N/A Fog Fog
4:55 AM 53.6 °F - 53.6 °F 100% 29.86 in - West 3.5 mph - N/A Fog Fog
5:02 AM 55.4 °F - 53.6 °F 94% 29.86 in 0.7 mi West 3.5 mph - N/A   Mostly Cloudy
5:06 AM 55.4 °F - 53.6 °F 94% 29.89 in 1.0 mi West 3.5 mph - N/A   Mostly Cloudy
5:09 AM 55.4 °F - 53.6 °F 94% 29.89 in 0.9 mi West 3.5 mph - N/A   Overcast
5:16 AM 55.4 °F - 53.6 °F 94% 29.89 in 1.0 mi West 4.6 mph - N/A   Overcast
5:25 AM 55.4 °F - 53.6 °F 94% 29.89 in 1.6 mi WSW 4.6 mph - N/A   Mostly Cloudy
5:36 AM 55.4 °F - 53.6 °F 94% 29.89 in 1.6 mi West 4.6 mph - N/A   Mostly Cloudy
5:55 AM 55.4 °F - 53.6 °F 94% 29.89 in 1.6 mi WNW 4.6 mph - N/A   Mostly Cloudy
6:20 AM 55.4 °F - 55.4 °F 100% 29.89 in 1.5 mi West 3.5 mph - N/A   Overcast
6:25 AM 55.4 °F - 55.4 °F 100% 29.89 in 1.5 mi West 3.5 mph - N/A   Overcast
6:55 AM 57.2 °F - 55.4 °F 94% 29.89 in 1.4 mi West 3.5 mph - N/A   Mostly Cloudy
7:25 AM 57.2 °F - 55.4 °F 94% 29.92 in 1.5 mi WNW 5.8 mph - N/A   Drizzle
7:33 AM 57.2 °F - 55.4 °F 94% 29.92 in - NW 6.9 mph - N/A   Overcast
7:46 AM 57.2 °F - 55.4 °F 94% 29.92 in 3.1 mi NNW 5.8 mph - N/A   Overcast
7:55 AM 57.2 °F - 55.4 °F 94% 29.92 in 4.3 mi NNW 6.9 mph - N/A   Overcast
8:06 AM 57.2 °F - 55.4 °F 94% 29.92 in 6.2 mi NNW 8.1 mph - N/A   Mostly Cloudy
8:17 AM 57.2 °F - 53.6 °F 88% 29.92 in 6.2 mi North 10.4 mph - N/A   Overcast
8:25 AM 57.2 °F - 53.6 °F 88% 29.92 in 6.2 mi North 10.4 mph - N/A   Overcast
8:39 AM 57.2 °F - 51.8 °F 82% 29.95 in 6.2 mi North 10.4 mph - N/A   Overcast
8:47 AM 57.2 °F - 51.8 °F 82% 29.95 in 6.2 mi North 9.2 mph - N/A   Overcast
8:55 AM 57.2 °F - 51.8 °F 82% 29.95 in 6.2 mi North 8.1 mph - N/A   Overcast
8:59 AM 57.2 °F - 51.8 °F 82% 29.95 in 6.2 mi North 9.2 mph - N/A   Mostly Cloudy
9:25 AM 57.2 °F - 51.8 °F 82% 29.95 in 6.2 mi North 8.1 mph - N/A   Mostly Cloudy
9:34 AM 57.2 °F - 51.8 °F 82% 29.95 in 6.2 mi North 9.2 mph - N/A   Partly Cloudy
9:41 AM 57.2 °F - 50.0 °F 77% 29.95 in 6.2 mi North 11.5 mph - N/A   Scattered Clouds
9:55 AM 59.0 °F - 50.0 °F 72% 29.95 in 6.2 mi North 11.5 mph - N/A   Partly Cloudy
10:25 AM 59.0 °F - 50.0 °F 72% 29.98 in 6.2 mi NNW 10.4 mph - N/A   Partly Cloudy
10:45 AM 60.8 °F - 50.0 °F 68% 29.98 in 6.2 mi NNW 9.2 mph - N/A   Scattered Clouds
10:55 AM 60.8 °F - 50.0 °F 68% 29.98 in 6.2 mi NNW 10.4 mph - N/A   Scattered Clouds
11:01 AM 60.8 °F - 50.0 °F 68% 29.98 in 6.2 mi North 9.2 mph - N/A   Scattered Clouds
11:16 AM 60.8 °F - 50.0 °F 68% 29.98 in 6.2 mi North 10.4 mph - N/A   Mostly Cloudy
11:25 AM 60.8 °F - 50.0 °F 68% 29.98 in 6.2 mi North 8.1 mph - N/A   Mostly Cloudy
11:50 AM 62.6 °F - 50.0 °F 63% 30.01 in 6.2 mi North 8.1 mph - N/A   Mostly Cloudy
11:55 AM 60.8 °F - 50.0 °F 68% 30.01 in 6.2 mi North 9.2 mph - N/A   Overcast
12:04 PM 60.8 °F - 50.0 °F 68% 30.01 in 6.2 mi NNE 9.2 mph - N/A   Mostly Cloudy
12:25 PM 62.6 °F - 50.0 °F 63% 30.01 in 6.2 mi NNE 11.5 mph - N/A   Scattered Clouds
12:55 PM 62.6 °F - 50.0 °F 63% 30.01 in 6.2 mi North 9.2 mph - N/A   Partly Cloudy
1:25 PM 64.4 °F - 51.8 °F 64% 30.01 in 6.2 mi North 6.9 mph - N/A   Partly Cloudy
1:55 PM 64.4 °F - 50.0 °F 59% 30.01 in 6.2 mi NNE 11.5 mph - N/A   Mostly Cloudy
2:17 PM 64.4 °F - 48.2 °F 56% 30.01 in 6.2 mi NNE 11.5 mph - N/A   Partly Cloudy
2:25 PM 64.4 °F - 48.2 °F 56% 30.01 in 6.2 mi NNE 11.5 mph - N/A   Partly Cloudy
2:31 PM 62.6 °F - 48.2 °F 59% 30.01 in 6.2 mi NNE 12.7 mph - N/A   Mostly Cloudy
2:55 PM 62.6 °F - 48.2 °F 59% 30.01 in 6.2 mi NNE 12.7 mph - N/A   Overcast
3:25 PM 64.4 °F - 48.2 °F 56% 30.04 in 6.2 mi NE 11.5 mph - N/A   Overcast
3:55 PM 62.6 °F - 48.2 °F 59% 30.04 in 6.2 mi NNE 10.4 mph - N/A   Mostly Cloudy
4:25 PM 60.8 °F - 46.4 °F 59% 30.04 in 6.2 mi NNE 11.5 mph - N/A   Overcast
4:42 PM 62.6 °F - 46.4 °F 55% 30.04 in 6.2 mi NNE 10.4 mph - N/A   Scattered Clouds
4:55 PM 60.8 °F - 46.4 °F 59% 30.04 in 6.2 mi NNE 10.4 mph - N/A   Unknown
5:25 PM 60.8 °F - 46.4 °F 59% 30.04 in 6.2 mi NNE 10.4 mph - N/A   Partly Cloudy
5:43 PM 60.8 °F - 48.2 °F 63% 30.04 in 6.2 mi NNE 9.2 mph - N/A   Scattered Clouds
5:55 PM 60.8 °F - 48.2 °F 63% 30.04 in 6.2 mi NNE 9.2 mph - N/A   Scattered Clouds
6:25 PM 57.2 °F - 48.2 °F 72% 30.04 in 6.2 mi NE 9.2 mph - N/A   Unknown
6:55 PM 57.2 °F - 46.4 °F 67% 30.04 in 6.2 mi NE 9.2 mph - N/A   Overcast
7:25 PM 55.4 °F - 46.4 °F 72% 30.04 in 6.2 mi ENE 10.4 mph - N/A   Unknown
7:55 PM 51.8 °F - 46.4 °F 82% 30.06 in 6.2 mi NE 6.9 mph - N/A   Scattered Clouds
8:25 PM 51.8 °F - 44.6 °F 76% 30.06 in 6.2 mi NE 5.8 mph - N/A   Unknown
8:55 PM 50.0 °F - 44.6 °F 82% 30.06 in 6.2 mi NE 5.8 mph - N/A   Partly Cloudy
9:25 PM 48.2 °F - 44.6 °F 87% 30.06 in 6.2 mi NE 4.6 mph - N/A   Unknown
9:55 PM 46.4 °F 43.5 °F 42.8 °F 87% 30.06 in 6.2 mi NE 5.8 mph - N/A   Unknown
10:25 PM 46.4 °F 45.2 °F 44.6 °F 93% 30.06 in 6.2 mi ENE 3.5 mph - N/A   Unknown
10:55 PM 46.4 °F 43.5 °F 44.6 °F 93% 30.09 in 6.2 mi ENE 5.8 mph - N/A   Unknown
11:01 PM 46.4 °F 43.5 °F 42.8 °F 87% 30.09 in 6.2 mi NE 5.8 mph - N/A   Unknown
11:25 PM 46.4 °F 43.5 °F 42.8 °F 87% 30.09 in 6.2 mi NE 5.8 mph - N/A   Unknown
11:55 PM 46.4 °F 43.5 °F 42.8 °F 87% 30.06 in 6.2 mi ENE 5.8 mph - N/A   Unknown